Погода в Дыре-Дауа

Эфиопия     9°35′40″N   41°51′40″E
темп.,
°C
ветер,
м/с
пор.,
м/с
влажн.,
%
обл.,
%
осадки,
мм/ч
давл.,
гПа
погр.,
м
17 апреля, сб
сб1700:00+20ю564719 0.0 101482
03:00+19ю555649 0.0 101288
06:00+18ю346152 0.0 101489
09:00+24ю234310 0.1 10151173
12:00+23ююз335092 1.4 10141238
15:00+24всв234684 3.5 10121155
18:00+22ююв135220 1.0 1012105
21:00+19ю446788 1.1 101566
18 апреля, вс
вс1800:00+18ю566747 0.0 1015101
03:00+18ю446488 0.1 101490
06:00+18ююз226368 0.1 101525
09:00+23с124463 0.1 10161129
12:00+21ю1260100 1.9 1016788
15:00+21ююз3362100 7.1 1013453
18:00+20ююв566195 0.4 1015380
21:00+18ю346439 0.4 101665
19 апреля, пн
пн1900:00+18ю5768100 0.0 1016207
03:00+16ю447562 0.1 101687
06:00+16ююв117685 0.1 101731
09:00+21сз115771 0.1 1017587
12:00+25с754292 0.1 10152203
15:00+25с653299 0.1 10122513
18:00+23св574185 0.0 1013570
21:00+18ююв4567100 0.0 1015180
20 апреля, вт
вт2000:00+18ю4466100 0.0 101585
03:00+18ююз225952 0.0 101314
06:00+17зюз226371 0.0 101515
09:00+22сз3241100 0.0 10161092
12:00+26ссз533312 0.0 10132275
15:00+27ссз643178 0.0 10092701
18:00+24ююв034355 0.0 1011191
21:00+20ююв44605 0.1 101481
21 апреля, ср
ср2100:00+19ю446035 0.0 101461
03:00+19ююв44556 0.1 101346
06:00+17ю43605 0.1 101435
09:00+24в12395 0.1 10151381
12:00+28с652345 0.0 10123254
15:00+29с742139 0.0 10093339
18:00+26ссв710226 0.0 1010433
21:00+20сз01435 0.0 101311